Location: Newark
(45.4422°N, 16.2769°E)
Time: 08:10:13
(UTC+00:00)

Vanguard 3 - Visible Passes

Search period start: 12 December 2019 00:00
Search period end: 22 December 2019 00:00
Orbit: 508 x 3263 km, 33.3° (Epoch: 11 December)

Date Brightness Start Highest point End Pass type
(mag) Time Alt. Az. Time Alt. Az. Time Alt. Az.
13 Dec 10.1 04:48:09 10° S 04:51:44 15° SE 04:56:21 10° ESE visible
14 Dec 9.8 05:43:13 10° SSW 05:48:34 27° SSE 05:56:48 10° E visible
15 Dec 9.8 04:32:03 10° S 04:35:19 15° SE 04:39:29 10° ESE visible
16 Dec 9.6 05:27:21 10° SSW 05:32:13 26° SSE 05:39:35 10° ESE visible
17 Dec 9.6 04:16:01 10° S 04:18:59 15° SE 04:22:43 10° ESE visible
18 Dec 9.4 05:11:33 10° SSW 05:15:57 25° SSE 05:22:29 10° ESE visible
19 Dec 9.3 04:00:02 10° S 04:02:44 15° SSE 04:06:03 10° ESE visible
20 Dec 9.2 04:55:48 10° SW 04:59:46 24° SSE 05:05:30 10° ESE visible
21 Dec 9.1 03:44:57 12° S 03:46:33 14° SSE 03:49:30 10° ESE visible
21 Dec 9.2 05:52:32 10° SW 05:57:10 29° S 06:04:14 10° ESE visible
